N155KF KHXD-KFTY

Flight info

Callsign N155KF
Flight time 1h 39m
Altitude 8000
Route DBOLT WRGNZ3
Aircraft C208/L-SDFGR/C

Departure

Time 2026-05-08 00:29
Airport Hilton Head Airport (KHXD)

Arrival

Time 2026-05-08 02:08
Airport Fulton County Airport Brown Field (KFTY)
Time Latitude Longitude Altitude Speed Heading
2026-05-08 00:16 32.22149 -80.69744 22 ft 0 kts 27°
2026-05-08 00:24 32.22178 -80.69762 22 ft 10 kts 331°
2026-05-08 00:25 32.22255 -80.69745 22 ft 12 kts 26°
2026-05-08 00:25 32.22324 -80.69705 23 ft 11 kts 25°
2026-05-08 00:25 32.22410 -80.69656 25 ft 14 kts 28°
2026-05-08 00:25 32.22489 -80.69611 27 ft 12 kts 26°
2026-05-08 00:26 32.22561 -80.69570 26 ft 12 kts 25°
2026-05-08 00:26 32.22636 -80.69526 27 ft 12 kts 27°
2026-05-08 00:26 32.22712 -80.69482 25 ft 12 kts 26°
2026-05-08 00:26 32.22789 -80.69437 24 ft 13 kts 26°
2026-05-08 00:27 32.22847 -80.69406 22 ft 14 kts 24°
2026-05-08 00:27 32.22924 -80.69370 20 ft 1 kts 340°
2026-05-08 00:27 32.22949 -80.69419 20 ft 13 kts 293°
2026-05-08 00:28 32.22924 -80.69466 20 ft 9 kts 205°
2026-05-08 00:28 32.22717 -80.69586 24 ft 60 kts 206°
2026-05-08 00:28 32.22393 -80.69761 88 ft 86 kts 206°
2026-05-08 00:28 32.21812 -80.70047 368 ft 96 kts 208°
2026-05-08 00:29 32.21153 -80.70329 646 ft 109 kts 204°
2026-05-08 00:29 32.20425 -80.70683 930 ft 119 kts 207°
2026-05-08 00:29 32.19634 -80.71016 1230 ft 121 kts 211°
2026-05-08 00:29 32.19204 -80.71733 1564 ft 109 kts 271°
2026-05-08 00:30 32.19638 -80.72463 1939 ft 113 kts 309°
2026-05-08 00:30 32.20220 -80.73064 2311 ft 110 kts 307°
2026-05-08 00:30 32.20801 -80.73645 2676 ft 109 kts 307°
2026-05-08 00:30 32.21354 -80.74234 3037 ft 105 kts 303°
2026-05-08 00:31 32.21889 -80.74817 3403 ft 104 kts 303°
2026-05-08 00:31 32.22420 -80.75386 3759 ft 102 kts 304°
2026-05-08 00:31 32.22949 -80.75945 4121 ft 101 kts 304°
2026-05-08 00:31 32.23470 -80.76496 4486 ft 99 kts 304°
2026-05-08 00:32 32.23983 -80.77037 4848 ft 98 kts 304°
2026-05-08 00:32 32.24488 -80.77567 5201 ft 96 kts 304°
2026-05-08 00:32 32.24985 -80.78090 5560 ft 95 kts 304°
2026-05-08 00:32 32.25468 -80.78598 5905 ft 94 kts 304°
2026-05-08 00:33 32.25966 -80.79124 6223 ft 97 kts 305°
2026-05-08 00:33 32.26476 -80.79661 6531 ft 99 kts 305°
2026-05-08 00:33 32.26994 -80.80204 6836 ft 100 kts 305°
2026-05-08 00:33 32.27513 -80.80750 7138 ft 100 kts 305°
2026-05-08 00:34 32.28035 -80.81297 7447 ft 100 kts 305°
2026-05-08 00:34 32.28557 -80.81847 7757 ft 100 kts 305°
2026-05-08 00:34 32.29084 -80.82403 8003 ft 106 kts 305°
2026-05-08 00:34 32.29685 -80.83043 8017 ft 124 kts 307°
2026-05-08 00:35 32.30363 -80.83750 8015 ft 134 kts 308°
2026-05-08 00:35 32.31065 -80.84484 8013 ft 139 kts 308°
2026-05-08 00:35 32.31795 -80.85250 8013 ft 141 kts 309°
2026-05-08 00:35 32.32532 -80.86025 8014 ft 142 kts 309°
2026-05-08 00:36 32.33274 -80.86806 8011 ft 144 kts 309°
2026-05-08 00:36 32.34024 -80.87596 8012 ft 144 kts 309°
2026-05-08 00:36 32.34778 -80.88391 8007 ft 146 kts 309°
2026-05-08 00:36 32.35540 -80.89195 8009 ft 147 kts 309°
2026-05-08 00:37 32.36308 -80.90003 8005 ft 148 kts 309°
2026-05-08 00:37 32.37075 -80.90813 8007 ft 148 kts 309°
2026-05-08 00:37 32.37844 -80.91624 8002 ft 148 kts 309°
2026-05-08 00:38 32.39387 -80.93252 8004 ft 148 kts 309°
2026-05-08 00:38 32.40158 -80.94065 8004 ft 148 kts 309°
2026-05-08 00:38 32.40919 -80.94870 8005 ft 148 kts 309°
2026-05-08 00:38 32.41689 -80.95683 8003 ft 148 kts 309°
2026-05-08 00:39 32.42459 -80.96496 8005 ft 148 kts 309°
2026-05-08 00:39 32.43228 -80.97309 8005 ft 148 kts 309°
2026-05-08 00:39 32.43996 -80.98120 8004 ft 148 kts 309°
2026-05-08 00:39 32.44764 -80.98932 8003 ft 148 kts 309°
2026-05-08 00:40 32.45532 -80.99744 8005 ft 148 kts 309°
2026-05-08 00:40 32.46300 -81.00557 8003 ft 148 kts 309°
2026-05-08 00:40 32.47069 -81.01370 7998 ft 148 kts 309°
2026-05-08 00:40 32.47838 -81.02183 7999 ft 148 kts 309°
2026-05-08 00:41 32.48596 -81.02986 8003 ft 148 kts 309°
2026-05-08 00:41 32.49361 -81.03795 7998 ft 147 kts 309°
2026-05-08 00:41 32.50127 -81.04607 7998 ft 148 kts 309°
2026-05-08 00:41 32.50894 -81.05419 8001 ft 148 kts 309°
2026-05-08 00:42 32.51661 -81.06233 7999 ft 148 kts 309°
2026-05-08 00:42 32.52430 -81.07047 7997 ft 148 kts 309°
2026-05-08 00:42 32.53200 -81.07863 7998 ft 148 kts 309°
2026-05-08 00:42 32.53970 -81.08679 7997 ft 149 kts 309°
2026-05-08 00:43 32.54741 -81.09497 7997 ft 149 kts 309°
2026-05-08 00:43 32.55510 -81.10313 7996 ft 149 kts 309°
2026-05-08 00:43 32.56282 -81.11131 7992 ft 149 kts 309°
2026-05-08 00:43 32.57054 -81.11950 7993 ft 149 kts 309°
2026-05-08 00:44 32.57826 -81.12770 7991 ft 149 kts 309°
2026-05-08 00:44 32.58597 -81.13589 7994 ft 148 kts 309°
2026-05-08 00:44 32.59363 -81.14402 7992 ft 148 kts 309°
2026-05-08 00:44 32.60116 -81.15202 7994 ft 147 kts 309°
2026-05-08 00:45 32.60880 -81.16013 7994 ft 147 kts 309°
2026-05-08 00:45 32.61642 -81.16824 7994 ft 147 kts 309°
2026-05-08 00:45 32.62406 -81.17635 7995 ft 147 kts 309°
2026-05-08 00:45 32.63170 -81.18448 7997 ft 147 kts 309°
2026-05-08 00:46 32.63934 -81.19260 7997 ft 147 kts 309°
2026-05-08 00:46 32.64698 -81.20074 8000 ft 148 kts 308°
2026-05-08 00:46 32.65464 -81.20888 8002 ft 148 kts 308°
2026-05-08 00:46 32.66231 -81.21704 8001 ft 148 kts 308°
2026-05-08 00:47 32.66999 -81.22522 7998 ft 148 kts 309°
2026-05-08 00:47 32.67769 -81.23342 8003 ft 148 kts 309°
2026-05-08 00:47 32.68539 -81.24162 8004 ft 148 kts 309°
2026-05-08 00:47 32.69298 -81.24971 8004 ft 149 kts 309°
2026-05-08 00:48 32.70070 -81.25794 8004 ft 149 kts 309°
2026-05-08 00:48 32.70841 -81.26615 8007 ft 149 kts 309°
2026-05-08 00:48 32.71611 -81.27436 7998 ft 149 kts 309°
2026-05-08 00:48 32.72380 -81.28257 7997 ft 149 kts 309°
2026-05-08 00:49 32.73150 -81.29076 7998 ft 148 kts 309°
2026-05-08 00:49 32.73917 -81.29895 7996 ft 148 kts 309°
2026-05-08 00:49 32.74675 -81.30704 7997 ft 148 kts 309°
2026-05-08 00:49 32.75439 -81.31520 7996 ft 148 kts 309°
2026-05-08 00:50 32.76204 -81.32336 8000 ft 148 kts 309°
2026-05-08 00:50 32.76969 -81.33154 8000 ft 147 kts 309°
2026-05-08 00:50 32.77732 -81.33969 7998 ft 148 kts 309°
2026-05-08 00:50 32.78494 -81.34783 8000 ft 147 kts 309°
2026-05-08 00:51 32.79255 -81.35596 8000 ft 147 kts 309°
2026-05-08 00:51 32.80017 -81.36410 7997 ft 147 kts 308°
2026-05-08 00:51 32.80767 -81.37212 8001 ft 147 kts 309°
2026-05-08 00:51 32.81529 -81.38026 8002 ft 147 kts 309°
2026-05-08 00:52 32.82291 -81.38842 8003 ft 147 kts 309°
2026-05-08 00:52 32.83056 -81.39661 7998 ft 148 kts 309°
2026-05-08 00:52 32.83822 -81.40480 7999 ft 148 kts 309°
2026-05-08 00:52 32.84585 -81.41297 7999 ft 148 kts 309°
2026-05-08 00:53 32.85350 -81.42116 8000 ft 148 kts 309°
2026-05-08 00:53 32.86115 -81.42936 8001 ft 148 kts 309°
2026-05-08 00:53 32.86879 -81.43754 8001 ft 148 kts 309°
2026-05-08 00:53 32.87636 -81.44565 7999 ft 148 kts 309°
2026-05-08 00:54 32.88402 -81.45385 8003 ft 148 kts 309°
2026-05-08 00:54 32.89164 -81.46202 7996 ft 148 kts 309°
2026-05-08 00:54 32.89928 -81.47022 8001 ft 148 kts 309°
2026-05-08 00:54 32.90684 -81.47843 8033 ft 142 kts 304°
2026-05-08 00:55 32.91284 -81.48679 8005 ft 150 kts 316°
2026-05-08 00:55 32.92270 -81.49375 7743 ft 161 kts 320°
2026-05-08 00:55 32.93093 -81.50214 7452 ft 163 kts 304°
2026-05-08 00:55 32.93894 -81.51231 7141 ft 162 kts 308°
2026-05-08 00:56 32.94662 -81.52078 7399 ft 140 kts 308°
2026-05-08 00:56 32.95347 -81.52821 7677 ft 126 kts 308°
2026-05-08 00:56 32.95974 -81.53500 7949 ft 118 kts 307°
2026-05-08 00:56 32.96603 -81.54188 7978 ft 128 kts 308°
2026-05-08 00:57 32.97276 -81.54915 7982 ft 136 kts 308°
2026-05-08 00:57 32.97988 -81.55679 7989 ft 139 kts 308°
2026-05-08 00:57 32.98715 -81.56459 7993 ft 141 kts 308°
2026-05-08 00:57 32.99450 -81.57248 7991 ft 143 kts 308°
2026-05-08 00:58 33.00188 -81.58043 7994 ft 144 kts 309°
2026-05-08 00:58 33.00932 -81.58842 7993 ft 144 kts 309°
2026-05-08 00:58 33.01678 -81.59646 7994 ft 145 kts 309°
2026-05-08 00:58 33.02426 -81.60451 7990 ft 145 kts 309°
2026-05-08 00:59 33.03176 -81.61258 7990 ft 145 kts 309°
2026-05-08 00:59 33.03926 -81.62066 7996 ft 146 kts 309°
2026-05-08 00:59 33.04670 -81.62867 7990 ft 146 kts 309°
2026-05-08 00:59 33.05421 -81.63677 7994 ft 146 kts 309°
2026-05-08 01:00 33.06172 -81.64486 7994 ft 146 kts 309°
2026-05-08 01:00 33.06928 -81.65301 7989 ft 146 kts 309°
2026-05-08 01:00 33.07681 -81.66112 7996 ft 146 kts 309°
2026-05-08 01:00 33.08433 -81.66924 7992 ft 146 kts 309°
2026-05-08 01:01 33.09186 -81.67736 7993 ft 146 kts 309°
2026-05-08 01:01 33.09940 -81.68551 7994 ft 147 kts 309°
2026-05-08 01:01 33.10698 -81.69367 7985 ft 146 kts 309°
2026-05-08 01:01 33.11438 -81.70167 7988 ft 145 kts 309°
2026-05-08 01:02 33.12189 -81.70978 7984 ft 146 kts 309°
2026-05-08 01:02 33.12943 -81.71793 7986 ft 146 kts 309°
2026-05-08 01:02 33.13693 -81.72603 7981 ft 146 kts 309°
2026-05-08 01:02 33.14442 -81.73412 7991 ft 145 kts 309°
2026-05-08 01:03 33.15193 -81.74224 7989 ft 145 kts 309°
2026-05-08 01:03 33.15942 -81.75034 7997 ft 145 kts 309°
2026-05-08 01:03 33.16692 -81.75845 7993 ft 146 kts 309°
2026-05-08 01:03 33.17445 -81.76659 7995 ft 146 kts 309°
2026-05-08 01:04 33.18197 -81.77473 7999 ft 146 kts 309°
2026-05-08 01:04 33.18941 -81.78278 8000 ft 146 kts 309°
2026-05-08 01:04 33.19696 -81.79096 8002 ft 146 kts 309°
2026-05-08 01:04 33.20451 -81.79913 8004 ft 146 kts 309°
2026-05-08 01:05 33.21205 -81.80729 8005 ft 146 kts 309°
2026-05-08 01:05 33.21956 -81.81545 8006 ft 146 kts 309°
2026-05-08 01:05 33.22707 -81.82360 8008 ft 146 kts 309°
2026-05-08 01:05 33.23459 -81.83176 8011 ft 146 kts 310°
2026-05-08 01:06 33.24214 -81.83991 8009 ft 147 kts 310°
2026-05-08 01:06 33.24972 -81.84811 8011 ft 147 kts 310°
2026-05-08 01:06 33.25726 -81.85630 8011 ft 147 kts 310°
2026-05-08 01:06 33.26436 -81.86488 8015 ft 142 kts 297°
2026-05-08 01:07 33.26706 -81.87580 8011 ft 139 kts 277°
2026-05-08 01:07 33.26853 -81.88722 8015 ft 139 kts 278°
2026-05-08 01:07 33.27022 -81.89862 8015 ft 139 kts 279°
2026-05-08 01:07 33.27196 -81.91005 8015 ft 140 kts 279°
2026-05-08 01:08 33.27371 -81.92150 8015 ft 140 kts 279°
2026-05-08 01:08 33.27546 -81.93297 8019 ft 140 kts 279°
2026-05-08 01:08 33.27722 -81.94441 8019 ft 140 kts 279°
2026-05-08 01:08 33.27897 -81.95587 8019 ft 140 kts 279°
2026-05-08 01:09 33.28070 -81.96712 8018 ft 139 kts 278°
2026-05-08 01:09 33.28244 -81.97853 8017 ft 139 kts 279°
2026-05-08 01:09 33.28418 -81.98991 8015 ft 139 kts 279°
2026-05-08 01:09 33.28592 -82.00129 8013 ft 140 kts 278°
2026-05-08 01:10 33.28766 -82.01269 8012 ft 139 kts 279°
2026-05-08 01:10 33.28941 -82.02414 8020 ft 140 kts 278°
2026-05-08 01:10 33.29116 -82.03559 8017 ft 139 kts 278°
2026-05-08 01:10 33.29289 -82.04701 8016 ft 139 kts 278°
2026-05-08 01:11 33.29463 -82.05841 8016 ft 140 kts 278°
2026-05-08 01:11 33.29637 -82.06982 8014 ft 140 kts 278°
2026-05-08 01:11 33.29811 -82.08122 8014 ft 139 kts 279°
2026-05-08 01:11 33.29983 -82.09257 8014 ft 139 kts 279°
2026-05-08 01:12 33.30155 -82.10394 8012 ft 139 kts 279°
2026-05-08 01:12 33.30326 -82.11515 8014 ft 139 kts 279°
2026-05-08 01:12 33.30499 -82.12654 8012 ft 139 kts 278°
2026-05-08 01:12 33.30671 -82.13789 8011 ft 139 kts 278°
2026-05-08 01:13 33.30844 -82.14927 8012 ft 139 kts 278°
2026-05-08 01:13 33.31016 -82.16068 8010 ft 139 kts 278°
2026-05-08 01:13 33.31188 -82.17204 8010 ft 139 kts 278°
2026-05-08 01:13 33.31359 -82.18337 8007 ft 139 kts 278°
2026-05-08 01:14 33.31528 -82.19457 8022 ft 139 kts 278°
2026-05-08 01:14 33.31700 -82.20593 8019 ft 139 kts 278°
2026-05-08 01:14 33.31814 -82.21350 8024 ft 139 kts 278°
2026-05-08 01:14 33.32043 -82.22866 8028 ft 139 kts 278°
2026-05-08 01:15 33.32156 -82.23621 8025 ft 139 kts 278°
2026-05-08 01:15 33.32328 -82.24756 8026 ft 139 kts 278°
2026-05-08 01:15 33.32499 -82.25891 8025 ft 138 kts 278°
2026-05-08 01:15 33.32669 -82.27024 8023 ft 138 kts 278°
2026-05-08 01:16 33.32840 -82.28157 8019 ft 139 kts 278°
2026-05-08 01:16 33.33011 -82.29296 8018 ft 139 kts 278°
2026-05-08 01:16 33.33182 -82.30436 8021 ft 139 kts 278°
2026-05-08 01:16 33.33353 -82.31572 8048 ft 139 kts 278°
2026-05-08 01:17 33.33522 -82.32701 8050 ft 139 kts 278°
2026-05-08 01:17 33.33693 -82.33841 8052 ft 139 kts 278°
2026-05-08 01:17 33.33864 -82.34982 8055 ft 140 kts 278°
2026-05-08 01:17 33.34036 -82.36126 8058 ft 139 kts 278°
2026-05-08 01:18 33.34206 -82.37263 8058 ft 138 kts 278°
2026-05-08 01:18 33.34375 -82.38395 8072 ft 138 kts 278°
2026-05-08 01:18 33.34544 -82.39526 8073 ft 138 kts 278°
2026-05-08 01:18 33.34713 -82.40663 8073 ft 139 kts 278°
2026-05-08 01:19 33.34881 -82.41785 8073 ft 139 kts 278°
2026-05-08 01:19 33.35051 -82.42922 8079 ft 139 kts 278°
2026-05-08 01:19 33.35220 -82.44062 8082 ft 139 kts 278°
2026-05-08 01:19 33.35391 -82.45203 8083 ft 139 kts 278°
2026-05-08 01:20 33.35561 -82.46346 8084 ft 139 kts 278°
2026-05-08 01:20 33.35730 -82.47484 8085 ft 139 kts 278°
2026-05-08 01:20 33.35899 -82.48622 8088 ft 139 kts 278°
2026-05-08 01:20 33.36069 -82.49761 8089 ft 139 kts 278°
2026-05-08 01:21 33.36238 -82.50899 8086 ft 139 kts 278°
2026-05-08 01:21 33.36406 -82.52032 8091 ft 138 kts 278°
2026-05-08 01:21 33.36573 -82.53166 8090 ft 139 kts 278°
2026-05-08 01:21 33.36740 -82.54289 8086 ft 138 kts 278°
2026-05-08 01:22 33.36908 -82.55422 8093 ft 138 kts 278°
2026-05-08 01:22 33.37075 -82.56555 8090 ft 138 kts 278°
2026-05-08 01:22 33.37243 -82.57687 8086 ft 138 kts 278°
2026-05-08 01:22 33.37410 -82.58818 8091 ft 138 kts 278°
2026-05-08 01:23 33.37578 -82.59954 8086 ft 138 kts 278°
2026-05-08 01:23 33.37745 -82.61088 8090 ft 138 kts 278°
2026-05-08 01:23 33.37912 -82.62220 8087 ft 138 kts 278°
2026-05-08 01:23 33.38077 -82.63338 8088 ft 138 kts 278°
2026-05-08 01:24 33.38244 -82.64471 8086 ft 138 kts 278°
2026-05-08 01:24 33.38411 -82.65607 8083 ft 138 kts 278°
2026-05-08 01:24 33.38578 -82.66743 8083 ft 138 kts 278°
2026-05-08 01:24 33.38744 -82.67875 8078 ft 138 kts 278°
2026-05-08 01:25 33.38910 -82.69004 8081 ft 138 kts 278°
2026-05-08 01:25 33.39077 -82.70138 8076 ft 138 kts 278°
2026-05-08 01:25 33.39242 -82.71264 8077 ft 138 kts 278°
2026-05-08 01:25 33.39408 -82.72392 8073 ft 138 kts 278°
2026-05-08 01:26 33.39574 -82.73525 8074 ft 138 kts 278°
2026-05-08 01:26 33.39739 -82.74659 8073 ft 138 kts 278°
2026-05-08 01:26 33.39906 -82.75796 8069 ft 139 kts 277°
2026-05-08 01:26 33.40073 -82.76936 8069 ft 139 kts 278°
2026-05-08 01:27 33.40240 -82.78078 8061 ft 139 kts 278°
2026-05-08 01:27 33.40406 -82.79217 8065 ft 139 kts 277°
2026-05-08 01:27 33.40570 -82.80340 8060 ft 139 kts 277°
2026-05-08 01:27 33.40736 -82.81479 8062 ft 139 kts 277°
2026-05-08 01:28 33.40902 -82.82615 8054 ft 138 kts 277°
2026-05-08 01:28 33.41067 -82.83749 8061 ft 138 kts 278°
2026-05-08 01:28 33.41232 -82.84883 8055 ft 138 kts 278°
2026-05-08 01:28 33.41574 -82.85960 8044 ft 141 kts 293°
2026-05-08 01:29 33.42047 -82.86995 7991 ft 144 kts 292°
2026-05-08 01:29 33.42497 -82.88053 7991 ft 141 kts 291°
2026-05-08 01:29 33.42934 -82.89104 7991 ft 141 kts 291°
2026-05-08 01:29 33.43368 -82.90155 7993 ft 140 kts 291°
2026-05-08 01:30 33.43800 -82.91199 7994 ft 140 kts 291°
2026-05-08 01:30 33.44232 -82.92245 7997 ft 139 kts 291°
2026-05-08 01:30 33.44660 -82.93284 7998 ft 138 kts 291°
2026-05-08 01:30 33.45080 -82.94303 7995 ft 138 kts 291°
2026-05-08 01:31 33.45503 -82.95329 7999 ft 137 kts 291°
2026-05-08 01:31 33.45930 -82.96366 8003 ft 137 kts 291°
2026-05-08 01:31 33.46346 -82.97377 8004 ft 137 kts 291°
2026-05-08 01:31 33.46767 -82.98399 8009 ft 137 kts 290°
2026-05-08 01:32 33.47189 -82.99423 8007 ft 137 kts 290°
2026-05-08 01:32 33.47609 -83.00447 8012 ft 137 kts 290°
2026-05-08 01:32 33.48031 -83.01470 8013 ft 137 kts 290°
2026-05-08 01:32 33.48452 -83.02496 8017 ft 137 kts 290°
2026-05-08 01:33 33.48875 -83.03523 8013 ft 137 kts 290°
2026-05-08 01:33 33.49297 -83.04551 8021 ft 137 kts 290°
2026-05-08 01:33 33.49719 -83.05578 8022 ft 137 kts 290°
2026-05-08 01:33 33.50140 -83.06603 8023 ft 137 kts 290°
2026-05-08 01:34 33.50555 -83.07615 8024 ft 137 kts 290°
2026-05-08 01:34 33.50977 -83.08643 8025 ft 138 kts 290°
2026-05-08 01:34 33.51402 -83.09678 8030 ft 138 kts 290°
2026-05-08 01:34 33.51826 -83.10712 8032 ft 138 kts 290°
2026-05-08 01:35 33.52250 -83.11746 8031 ft 138 kts 290°
2026-05-08 01:35 33.52675 -83.12782 8031 ft 139 kts 290°
2026-05-08 01:35 33.53099 -83.13819 8032 ft 138 kts 290°
2026-05-08 01:35 33.53525 -83.14856 8034 ft 139 kts 290°
2026-05-08 01:36 33.53949 -83.15892 8027 ft 138 kts 290°
2026-05-08 01:36 33.54372 -83.16924 8033 ft 139 kts 290°
2026-05-08 01:36 33.54796 -83.17963 8031 ft 139 kts 290°
2026-05-08 01:36 33.55221 -83.19001 8030 ft 139 kts 290°
2026-05-08 01:37 33.55646 -83.20040 8028 ft 139 kts 291°
2026-05-08 01:37 33.56072 -83.21080 8033 ft 139 kts 290°
2026-05-08 01:37 33.56492 -83.22108 8031 ft 139 kts 291°
2026-05-08 01:37 33.56917 -83.23145 8033 ft 138 kts 291°
2026-05-08 01:38 33.57341 -83.24182 8030 ft 138 kts 290°
2026-05-08 01:38 33.57763 -83.25218 8029 ft 138 kts 290°
2026-05-08 01:38 33.58188 -83.26258 8028 ft 139 kts 290°
2026-05-08 01:38 33.58612 -83.27297 8025 ft 139 kts 290°
2026-05-08 01:39 33.59036 -83.28336 8024 ft 138 kts 290°
2026-05-08 01:39 33.59460 -83.29372 8023 ft 138 kts 290°
2026-05-08 01:39 33.59882 -83.30408 8023 ft 138 kts 290°
2026-05-08 01:39 33.60303 -83.31444 8024 ft 138 kts 290°
2026-05-08 01:40 33.60726 -83.32480 8019 ft 138 kts 290°
2026-05-08 01:40 33.61142 -83.33503 8021 ft 138 kts 290°
2026-05-08 01:40 33.61567 -83.34545 7992 ft 139 kts 290°
2026-05-08 01:40 33.61992 -83.35590 7995 ft 139 kts 290°
2026-05-08 01:41 33.62418 -83.36635 7992 ft 139 kts 290°
2026-05-08 01:41 33.62843 -83.37679 7992 ft 139 kts 290°
2026-05-08 01:41 33.63267 -83.38721 7991 ft 139 kts 290°
2026-05-08 01:41 33.63690 -83.39760 7990 ft 139 kts 290°
2026-05-08 01:42 33.64113 -83.40801 7989 ft 138 kts 290°
2026-05-08 01:42 33.64535 -83.41838 7988 ft 138 kts 290°
2026-05-08 01:42 33.64957 -83.42877 7988 ft 139 kts 290°
2026-05-08 01:42 33.65380 -83.43919 7986 ft 139 kts 290°
2026-05-08 01:43 33.65805 -83.44965 7984 ft 139 kts 290°
2026-05-08 01:43 33.66228 -83.46009 7985 ft 139 kts 290°
2026-05-08 01:43 33.66652 -83.47053 7986 ft 139 kts 290°
2026-05-08 01:43 33.67077 -83.48100 7986 ft 139 kts 290°
2026-05-08 01:44 33.67502 -83.49147 7980 ft 140 kts 290°
2026-05-08 01:44 33.67926 -83.50193 7984 ft 139 kts 290°
2026-05-08 01:44 33.68351 -83.51239 7989 ft 139 kts 290°
2026-05-08 01:44 33.68774 -83.52285 7993 ft 139 kts 290°
2026-05-08 01:45 33.69193 -83.53318 7993 ft 139 kts 290°
2026-05-08 01:45 33.69617 -83.54366 7996 ft 139 kts 290°
2026-05-08 01:45 33.70040 -83.55411 7997 ft 139 kts 290°
2026-05-08 01:45 33.70464 -83.56457 7999 ft 139 kts 290°
2026-05-08 01:46 33.70888 -83.57506 8001 ft 140 kts 290°
2026-05-08 01:46 33.71313 -83.58557 8000 ft 140 kts 290°
2026-05-08 01:46 33.71738 -83.59606 8002 ft 139 kts 290°
2026-05-08 01:46 33.72161 -83.60653 8003 ft 139 kts 290°
2026-05-08 01:47 33.72583 -83.61699 8006 ft 139 kts 290°
2026-05-08 01:47 33.73006 -83.62746 8005 ft 139 kts 290°
2026-05-08 01:47 33.73428 -83.63790 8007 ft 139 kts 290°
2026-05-08 01:48 33.74258 -83.65842 7693 ft 133 kts 290°
2026-05-08 01:48 33.74662 -83.66845 7494 ft 133 kts 289°
2026-05-08 01:48 33.75067 -83.67853 7299 ft 135 kts 289°
2026-05-08 01:48 33.75472 -83.68858 7114 ft 136 kts 290°
2026-05-08 01:49 33.75886 -83.69884 6927 ft 137 kts 290°
2026-05-08 01:49 33.76300 -83.70912 6740 ft 137 kts 290°
2026-05-08 01:49 33.76713 -83.71934 6549 ft 135 kts 290°
2026-05-08 01:49 33.77121 -83.72948 6357 ft 134 kts 290°
2026-05-08 01:50 33.77528 -83.73960 6152 ft 134 kts 291°
2026-05-08 01:50 33.77937 -83.74977 5951 ft 136 kts 291°
2026-05-08 01:50 33.78351 -83.76011 5747 ft 139 kts 292°
2026-05-08 01:50 33.78776 -83.77065 5552 ft 141 kts 292°
2026-05-08 01:51 33.79205 -83.78129 5358 ft 142 kts 292°
2026-05-08 01:51 33.79637 -83.79203 5162 ft 143 kts 293°
2026-05-08 01:51 33.80059 -83.80251 4967 ft 139 kts 293°
2026-05-08 01:51 33.80475 -83.81286 4765 ft 136 kts 294°
2026-05-08 01:52 33.80886 -83.82312 4558 ft 136 kts 294°
2026-05-08 01:52 33.81297 -83.83337 4360 ft 136 kts 295°
2026-05-08 01:52 33.81711 -83.84368 4156 ft 139 kts 295°
2026-05-08 01:52 33.82121 -83.85428 4020 ft 140 kts 290°
2026-05-08 01:53 33.82192 -83.86610 4029 ft 146 kts 270°
2026-05-08 01:53 33.82148 -83.87827 4022 ft 148 kts 271°
2026-05-08 01:53 33.82126 -83.89070 4026 ft 150 kts 271°
2026-05-08 01:53 33.82108 -83.90313 4021 ft 148 kts 271°
2026-05-08 01:54 33.82092 -83.91543 4023 ft 146 kts 272°
2026-05-08 01:54 33.82076 -83.92767 4021 ft 146 kts 272°
2026-05-08 01:54 33.82060 -83.93988 4021 ft 146 kts 272°
2026-05-08 01:54 33.82044 -83.95191 4019 ft 145 kts 272°
2026-05-08 01:55 33.82028 -83.96403 4021 ft 145 kts 272°
2026-05-08 01:55 33.82010 -83.97624 4020 ft 146 kts 272°
2026-05-08 01:55 33.81993 -83.98846 4016 ft 146 kts 272°
2026-05-08 01:55 33.81976 -84.00067 4015 ft 146 kts 272°
2026-05-08 01:56 33.81960 -84.01284 4015 ft 145 kts 272°
2026-05-08 01:56 33.81942 -84.02492 4017 ft 145 kts 272°
2026-05-08 01:56 33.81925 -84.03695 4015 ft 145 kts 272°
2026-05-08 01:56 33.81908 -84.04907 4016 ft 145 kts 272°
2026-05-08 01:57 33.81891 -84.06123 4017 ft 146 kts 272°
2026-05-08 01:57 33.81872 -84.07341 4010 ft 144 kts 272°
2026-05-08 01:57 33.81854 -84.08546 4011 ft 144 kts 272°
2026-05-08 01:57 33.81837 -84.09748 4014 ft 144 kts 272°
2026-05-08 01:58 33.81819 -84.10959 4016 ft 145 kts 272°
2026-05-08 01:58 33.81801 -84.12172 4016 ft 145 kts 272°
2026-05-08 01:58 33.81783 -84.13385 4015 ft 145 kts 272°
2026-05-08 01:58 33.81765 -84.14600 4015 ft 145 kts 272°
2026-05-08 01:59 33.81747 -84.15805 4016 ft 146 kts 272°
2026-05-08 01:59 33.81728 -84.17020 4010 ft 144 kts 271°
2026-05-08 01:59 33.81709 -84.18217 4017 ft 143 kts 272°
2026-05-08 01:59 33.81691 -84.19415 4017 ft 142 kts 271°
2026-05-08 02:00 33.81672 -84.20605 4020 ft 142 kts 272°
2026-05-08 02:00 33.81653 -84.21788 4022 ft 142 kts 272°
2026-05-08 02:00 33.81635 -84.22978 4021 ft 142 kts 272°
2026-05-08 02:00 33.81616 -84.24170 3981 ft 142 kts 272°
2026-05-08 02:01 33.81603 -84.24942 3911 ft 137 kts 272°
2026-05-08 02:01 33.81585 -84.26065 3798 ft 132 kts 272°
2026-05-08 02:01 33.81562 -84.27540 3660 ft 137 kts 273°
2026-05-08 02:01 33.81529 -84.28698 3634 ft 139 kts 268°
2026-05-08 02:02 33.81345 -84.29830 3637 ft 138 kts 265°
2026-05-08 02:02 33.81233 -84.30597 3635 ft 138 kts 265°
2026-05-08 02:02 33.81067 -84.31735 3626 ft 138 kts 264°
2026-05-08 02:02 33.80900 -84.32850 3501 ft 136 kts 265°
2026-05-08 02:03 33.80734 -84.33953 3379 ft 132 kts 266°
2026-05-08 02:03 33.80572 -84.35042 3248 ft 134 kts 265°
2026-05-08 02:03 33.80404 -84.36164 3124 ft 138 kts 265°
2026-05-08 02:03 33.80230 -84.37308 2992 ft 138 kts 265°
2026-05-08 02:04 33.80063 -84.38409 2889 ft 130 kts 265°
2026-05-08 02:04 33.79905 -84.39481 2759 ft 132 kts 265°
2026-05-08 02:04 33.79739 -84.40585 2603 ft 136 kts 265°
2026-05-08 02:04 33.79576 -84.41674 2422 ft 129 kts 265°
2026-05-08 02:05 33.79418 -84.42707 2256 ft 122 kts 265°
2026-05-08 02:05 33.79266 -84.43704 2099 ft 120 kts 266°
2026-05-08 02:05 33.79120 -84.44683 1955 ft 116 kts 265°
2026-05-08 02:05 33.78980 -84.45614 1798 ft 111 kts 264°
2026-05-08 02:06 33.78851 -84.46514 1649 ft 110 kts 263°
2026-05-08 02:06 33.78716 -84.47357 1516 ft 99 kts 261°
2026-05-08 02:06 33.78595 -84.48146 1376 ft 95 kts 262°
2026-05-08 02:06 33.78497 -84.48875 1254 ft 86 kts 260°
2026-05-08 02:07 33.78388 -84.49587 1106 ft 87 kts 258°
2026-05-08 02:07 33.78283 -84.50289 1016 ft 85 kts 258°
2026-05-08 02:07 33.78175 -84.51006 902 ft 88 kts 258°
2026-05-08 02:07 33.78066 -84.51704 848 ft 78 kts 259°
2026-05-08 02:08 33.77997 -84.52176 851 ft 32 kts 259°
2026-05-08 02:08 33.77947 -84.52239 851 ft 10 kts 168°
2026-05-08 02:08 33.77891 -84.52225 849 ft 1 kts 169°
2026-05-08 02:08 33.77884 -84.52219 843 ft 6 kts 133°
2026-05-08 02:09 33.77892 -84.52136 849 ft 9 kts 79°
2026-05-08 02:09 33.77869 -84.52102 849 ft 5 kts 167°
2026-05-08 02:09 33.77841 -84.52107 849 ft 4 kts 241°
2026-05-08 02:09 33.77832 -84.52139 849 ft 4 kts 255°
2026-05-08 02:10 33.77813 -84.52173 849 ft 8 kts 211°
2026-05-08 02:10 33.77777 -84.52215 845 ft 4 kts 228°
2026-05-08 02:10 33.77759 -84.52237 846 ft 4 kts 218°
2026-05-08 02:10 33.77730 -84.52259 846 ft 5 kts 197°
2026-05-08 02:11 33.77693 -84.52256 846 ft 5 kts 172°
2026-05-08 02:11 33.77670 -84.52253 849 ft 1 kts 193°
2026-05-08 02:11 33.77668 -84.52257 849 ft 0 kts 245°